• In Uzbekistan
  • List of Countries
  • For 7 days
  • Water Temperature
  • Satellite Maps
  • Weather Map
  • Weather Widgets
  • user-avatar
    Login

    Hourly Weather Namangan

    Today, 16 October, Tuesday

    Time Temperature Precipitation Wind Pressure Humidity
    00:00 +12°C° 0.5 mm 4 mps 723 mmHg 51%
    01:00 +11°C° 0.5 mm 4 mps 723 mmHg 57%
    02:00 +10°C° 0.5 mm 4 mps 723 mmHg 63%
    03:00 +10°C° 1 mm 4 mps 723 mmHg 67%
    04:00 +10°C° 1 mm 3 mps 723 mmHg 71%
    05:00 +9°C° 1 mm 3 mps 724 mmHg 74%
    06:00 +9°C° 0.9 mm 3 mps 724 mmHg 76%
    07:00 +9°C° 0.9 mm 3 mps 724 mmHg 77%
    08:00 +9°C° 0.9 mm 3 mps 724 mmHg 78%
    09:00 +9°C° 0.7 mm 3 mps 724 mmHg 77%
    10:00 +9°C° 0.7 mm 3 mps 724 mmHg 76%
    11:00 +9°C° 0.7 mm 3 mps 724 mmHg 75%
    12:00 +8°C° 0.5 mm 4 mps 724 mmHg 73%
    13:00 +10°C° 0.5 mm 4 mps 724 mmHg 70%
    14:00 +10°C° 0.5 mm 4 mps 724 mmHg 68%
    15:00 +10°C° 0.4 mm 4 mps 725 mmHg 67%
    16:00 +8°C° 0.4 mm 5 mps 725 mmHg 66%
    17:00 +8°C° 0.4 mm 5 mps 726 mmHg 65%
    18:00 +7°C° 0.4 mm 5 mps 726 mmHg 66%
    19:00 +7°C° 0.4 mm 5 mps 727 mmHg 66%
    20:00 +6°C° 0.4 mm 5 mps 727 mmHg 67%
    21:00 +6°C° 0.3 mm 5 mps 727 mmHg 67%
    22:00 +6°C° 0.3 mm 4 mps 728 mmHg 67%
    23:00 +5°C° 0.3 mm 4 mps 728 mmHg 67%

    Tomorrow, 17 October, Wednesday

    Time Temperature Precipitation Wind Pressure Humidity
    00:00 +5°C° 0.2 mm 3 mps 729 mmHg 68%
    01:00 +5°C° 0.2 mm 3 mps 729 mmHg 69%
    02:00 +5°C° 0.2 mm 3 mps 730 mmHg 69%
    03:00 +5°C° 0.3 mm 3 mps 730 mmHg 70%
    04:00 +6°C° 0.3 mm 2 mps 731 mmHg 71%
    05:00 +6°C° 0.3 mm 2 mps 732 mmHg 72%
    06:00 +6°C° 0.2 mm 2 mps 732 mmHg 71%
    07:00 +5°C° 0.2 mm 3 mps 733 mmHg 70%
    08:00 +5°C° 0.2 mm 3 mps 733 mmHg 68%
    09:00 +7°C° 0.1 mm 3 mps 733 mmHg 63%
    10:00 +8°C° 0.1 mm 3 mps 733 mmHg 58%
    11:00 +8°C° 0.1 mm 3 mps 733 mmHg 53%
    12:00 +9°C° 0.1 mm 3 mps 733 mmHg 49%
    13:00 +10°C° 0.1 mm 2 mps 733 mmHg 46%
    14:00 +10°C° 0.1 mm 2 mps 733 mmHg 43%
    15:00 +10°C° 0 mm 2 mps 733 mmHg 44%
    16:00 +9°C° 0 mm 2 mps 733 mmHg 46%
    17:00 +9°C° 0 mm 2 mps 733 mmHg 47%
    18:00 +8°C° 0 mm 2 mps 734 mmHg 51%
    19:00 +7°C° 0 mm 3 mps 734 mmHg 54%
    20:00 +4°C° 0 mm 3 mps 735 mmHg 57%
    21:00 +4°C° 0 mm 3 mps 735 mmHg 56%
    22:00 +4°C° 0 mm 3 mps 734 mmHg 55%
    23:00 +3°C° 0 mm 3 mps 734 mmHg 54%

    Day after tomorrow, 18 October, Thursday

    Time Temperature Precipitation Wind Pressure Humidity
    00:00 +3°C° 0 mm 3 mps 734 mmHg 52%
    01:00 +3°C° 0 mm 3 mps 733 mmHg 51%
    02:00 +2°C° 0 mm 3 mps 732 mmHg 50%
    03:00 +3°C° 0 mm 2 mps 732 mmHg 49%
    04:00 +3°C° 0 mm 2 mps 732 mmHg 48%
    05:00 +3°C° 0 mm 2 mps 731 mmHg 47%
    06:00 +4°C° 0 mm 2 mps 731 mmHg 45%
    07:00 +4°C° 0 mm 2 mps 731 mmHg 44%
    08:00 +6°C° 0 mm 1 mps 730 mmHg 42%
    09:00 +8°C° 0 mm 1 mps 729 mmHg 40%
    10:00 +9°C° 0 mm 1 mps 729 mmHg 37%
    11:00 +11°C° 0 mm 1 mps 728 mmHg 35%
    12:00 +12°C° 0 mm 1 mps 728 mmHg 34%
    13:00 +13°C° 0 mm 1 mps 727 mmHg 34%
    14:00 +13°C° 0 mm 1 mps 727 mmHg 33%
    15:00 +13°C° 0 mm 1 mps 727 mmHg 34%
    16:00 +12°C° 0 mm 1 mps 727 mmHg 34%
    17:00 +12°C° 0 mm 1 mps 727 mmHg 34%
    18:00 +11°C° 0 mm 1 mps 728 mmHg 35%
    19:00 +10°C° 0 mm 1 mps 728 mmHg 36%
    20:00 +10°C° 0 mm 1 mps 728 mmHg 37%
    21:00 +10°C° 0 mm 1 mps 728 mmHg 38%
    22:00 +9°C° 0 mm 1 mps 728 mmHg 39%
    23:00 +9°C° 0 mm 1 mps 728 mmHg 39%

    19 October, Friday

    Time Temperature Precipitation Wind Pressure Humidity
    00:00 +9°C° 0 mm 1 mps 728 mmHg 40%
    01:00 +9°C° 0 mm 1 mps 728 mmHg 41%
    02:00 +9°C° 0 mm 1 mps 728 mmHg 41%
    03:00 +9°C° 0 mm 1 mps 728 mmHg 41%
    04:00 +9°C° 0 mm 1 mps 728 mmHg 42%
    05:00 +9°C° 0 mm 1 mps 728 mmHg 42%
    06:00 +9°C° 0 mm 1 mps 728 mmHg 42%
    07:00 +9°C° 0 mm 1 mps 729 mmHg 42%
    08:00 +10°C° 0 mm 1 mps 729 mmHg 42%
    09:00 +11°C° 0 mm 1 mps 729 mmHg 41%
    10:00 +12°C° 0 mm 1 mps 728 mmHg 39%
    11:00 +13°C° 0 mm 2 mps 728 mmHg 37%
    12:00 +13°C° 0 mm 2 mps 728 mmHg 37%
    13:00 +14°C° 0 mm 1 mps 728 mmHg 37%
    14:00 +15°C° 0 mm 1 mps 728 mmHg 36%
    15:00 +14°C° 0 mm 1 mps 728 mmHg 37%
    16:00 +13°C° 0 mm 1 mps 729 mmHg 38%
    17:00 +13°C° 0 mm 1 mps 729 mmHg 39%
    18:00 +12°C° 0 mm 2 mps 729 mmHg 40%
    19:00 +10°C° 0 mm 2 mps 730 mmHg 42%
    20:00 +10°C° 0 mm 2 mps 730 mmHg 44%
    21:00 +9°C° 0 mm 2 mps 731 mmHg 44%
    22:00 +9°C° 0 mm 2 mps 731 mmHg 44%
    23:00 +9°C° 0 mm 2 mps 731 mmHg 45%

    20 October, Saturday

    Time Temperature Precipitation Wind Pressure Humidity
    00:00 +9°C° 0 mm 2 mps 731 mmHg 45%
    01:00 +9°C° 0 mm 2 mps 730 mmHg 45%
    02:00 +9°C° 0 mm 2 mps 730 mmHg 45%
    03:00 +9°C° 0 mm 2 mps 730 mmHg 44%
    04:00 +9°C° 0 mm 2 mps 730 mmHg 44%
    05:00 +9°C° 0 mm 2 mps 730 mmHg 44%
    06:00 +9°C° 0 mm 2 mps 731 mmHg 43%
    07:00 +9°C° 0 mm 2 mps 731 mmHg 43%
    08:00 +10°C° 0 mm 2 mps 731 mmHg 42%
    09:00 +12°C° 0 mm 2 mps 730 mmHg 41%
    10:00 +14°C° 0 mm 2 mps 730 mmHg 40%
    11:00 +15°C° 0 mm 2 mps 730 mmHg 39%
    12:00 +16°C° 0 mm 2 mps 730 mmHg 38%
    13:00 +16°C° 0 mm 2 mps 729 mmHg 37%
    14:00 +18°C° 0 mm 1 mps 729 mmHg 36%
    15:00 +18°C° 0 mm 1 mps 729 mmHg 36%
    16:00 +16°C° 0 mm 1 mps 730 mmHg 36%
    17:00 +16°C° 0 mm 1 mps 730 mmHg 36%
    18:00 +15°C° 0 mm 1 mps 730 mmHg 38%
    19:00 +14°C° 0 mm 2 mps 730 mmHg 39%
    20:00 +13°C° 0 mm 2 mps 731 mmHg 41%
    21:00 +13°C° 0 mm 2 mps 731 mmHg 42%
    22:00 +12°C° 0 mm 2 mps 731 mmHg 42%
    23:00 +11°C° 0 mm 3 mps 731 mmHg 43%

    21 October, Sunday

    Time Temperature Precipitation Wind Pressure Humidity
    00:00 +10°C° 0 mm 3 mps 731 mmHg 43%
    01:00 +10°C° 0 mm 2 mps 730 mmHg 43%
    02:00 +10°C° 0 mm 2 mps 730 mmHg 44%
    03:00 +10°C° 0 mm 2 mps 730 mmHg 43%
    04:00 +9°C° 0 mm 2 mps 730 mmHg 43%
    05:00 +9°C° 0 mm 2 mps 730 mmHg 43%
    06:00 +10°C° 0 mm 2 mps 730 mmHg 43%
    07:00 +10°C° 0 mm 2 mps 731 mmHg 42%
    08:00 +12°C° 0 mm 2 mps 731 mmHg 41%
    09:00 +14°C° 0 mm 2 mps 730 mmHg 39%
    10:00 +16°C° 0 mm 2 mps 730 mmHg 38%
    11:00 +18°C° 0 mm 2 mps 729 mmHg 36%
    12:00 +18°C° 0 mm 2 mps 729 mmHg 35%
    13:00 +19°C° 0 mm 2 mps 729 mmHg 34%
    14:00 +20°C° 0 mm 2 mps 728 mmHg 33%
    15:00 +19°C° 0 mm 2 mps 728 mmHg 33%
    16:00 +19°C° 0 mm 2 mps 728 mmHg 33%
    17:00 +18°C° 0 mm 2 mps 728 mmHg 34%
    18:00 +17°C° 0 mm 2 mps 729 mmHg 35%
    19:00 +16°C° 0 mm 2 mps 729 mmHg 36%
    20:00 +14°C° 0 mm 3 mps 729 mmHg 38%
    21:00 +13°C° 0 mm 3 mps 729 mmHg 37%
    22:00 +13°C° 0 mm 3 mps 729 mmHg 37%
    23:00 +12°C° 0 mm 3 mps 729 mmHg 37%
    Show more